Weather in Berd-Yurt

Russia / Republic of Ingushetia     43°12′54″N   45°06′46″E
temp.,
°C
wind,
m/s
gust,
m/s
humid.,
%
clouds,
%
prec.,
mm/h
press.,
hPa
HPBL,
m
19 april, mon
mon1900:00+11ese1192100 0.0 101610
03:00+11sw1194100 0.0 101711
06:00+11se11905 0.0 101625
09:00+17ene34685 0.0 1015515
12:00+21e554987 0.0 10131054
15:00+22ene554676 0.0 10131412
18:00+18ene486169 0.0 1013334
21:00+13sse2275100 0.0 101518
20 april, tue
tue2000:00+13sse007772 0.0 101310
03:00+12ese2282100 0.0 101113
06:00+12se3484100 0.0 1010103
09:00+18e3459100 0.0 1008265
12:00+24ene4444100 0.0 1006568
15:00+25e5641100 0.0 1004652
18:00+19nw2267100 0.0 100622
21:00+18se1167100 0.0 100614
21 april, wed
wed2100:00+16w61080100 0.3 1010484
03:00+13wnw61078100 0.7 1014777
06:00+12w4666100 0.0 1017548
09:00+12nw2356100 0.0 1018528
12:00+14n435414 0.0 10171069
15:00+14nne435788 0.0 10181307
18:00+12n4571100 0.1 1021553
21:00+10ssw1287100 0.7 1022335
22 april, thu
thu2200:00+9nne1287100 0.3 1022230
03:00+9e0186100 0.3 102253
06:00+9e1184100 0.0 102347
09:00+10ne3475100 0.0 1023605
12:00+9ne2387100 0.0 1024443
15:00+9ne3385100 0.2 1025547
18:00+9e1286100 0.1 1025342
21:00+8ese2292100 0.6 1024119
23 april, fri
fri2300:00+8ne1198100 9.9 102364
03:00+8ssw1196100 18.6 102350
06:00+8sse1293100 4.0 102383
09:00+9nne0183100 4.3 1023257
12:00+13n226941 0.0 1022797
15:00+15ne226087 0.1 10201269
18:00+13e24746 0.0 1021157
21:00+9se11865 0.0 102110